Time,TemperatureF,DewpointF,PressureIn,WindDirection,WindDirectionDegrees,WindSpeedMPH,WindSpeedGustMPH,Humidity,HourlyPrecipIn,Conditions,Clouds,dailyrainin,SoftwareType,DateUTC
2013-09-23 00:07:00,68.0,62.6,29.79,NNW,347,0.0,0.0,83,0.00,,,0.00,Wunderground v.1.15,2013-09-23 05:07:00,
2013-09-23 00:12:00,67.8,62.8,29.79,NNW,348,0.0,0.0,84,0.00,,,0.00,Wunderground v.1.15,2013-09-23 05:12:00,
2013-09-23 00:17:00,67.7,62.7,29.79,NNW,347,0.0,0.0,84,0.00,,,0.00,Wunderground v.1.15,2013-09-23 05:17:00,
2013-09-23 00:22:00,67.5,62.5,29.79,North,355,0.0,2.0,84,0.00,,,0.00,Wunderground v.1.15,2013-09-23 05:22:00,
2013-09-23 00:27:00,67.4,62.4,29.79,North,351,0.0,2.0,84,0.00,,,0.00,Wunderground v.1.15,2013-09-23 05:27:00,
2013-09-23 00:37:00,67.2,62.2,29.79,North,9,1.0,2.0,84,0.00,,,0.00,Wunderground v.1.15,2013-09-23 05:37:00,
2013-09-23 00:42:00,67.2,62.2,29.78,North,360,1.0,1.0,84,0.00,,,0.00,Wunderground v.1.15,2013-09-23 05:42:00,
2013-09-23 00:47:00,67.1,62.1,29.78,North,355,1.0,1.0,84,0.00,,,0.00,Wunderground v.1.15,2013-09-23 05:47:00,
2013-09-23 00:57:00,67.0,62.0,29.78,NNW,338,0.0,2.0,84,0.00,,,0.00,Wunderground v.1.15,2013-09-23 05:57:00,
2013-09-23 01:02:00,67.1,61.8,29.78,North,355,0.0,0.0,83,0.00,,,0.00,Wunderground v.1.15,2013-09-23 06:02:00,
2013-09-23 01:07:00,67.1,61.8,29.78,North,10,1.0,1.0,83,0.00,,,0.00,Wunderground v.1.15,2013-09-23 06:07:00,
2013-09-23 01:12:00,67.0,61.7,29.79,NNE,18,0.0,1.0,83,0.00,,,0.00,Wunderground v.1.15,2013-09-23 06:12:00,
2013-09-23 01:17:00,66.9,61.6,29.79,North,351,0.0,1.0,83,0.00,,,0.00,Wunderground v.1.15,2013-09-23 06:17:00,
2013-09-23 01:22:00,66.9,61.6,29.79,North,355,0.0,0.0,83,0.00,,,0.00,Wunderground v.1.15,2013-09-23 06:22:00,
2013-09-23 01:27:00,66.8,61.5,29.79,NNE,19,0.0,0.0,83,0.00,,,0.00,Wunderground v.1.15,2013-09-23 06:27:00,
2013-09-23 01:32:00,66.7,61.7,29.79,NNE,19,0.0,0.0,84,0.00,,,0.00,Wunderground v.1.15,2013-09-23 06:32:00,
2013-09-23 01:42:00,66.5,61.2,29.79,North,360,0.0,0.0,83,0.00,,,0.00,Wunderground v.1.15,2013-09-23 06:42:00,
2013-09-23 01:47:00,66.5,61.2,29.79,NW,326,0.0,0.0,83,0.00,,,0.00,Wunderground v.1.15,2013-09-23 06:47:00,
2013-09-23 01:52:00,66.5,61.5,29.79,NW,326,0.0,0.0,84,0.00,,,0.00,Wunderground v.1.15,2013-09-23 06:52:00,
2013-09-23 01:57:00,66.3,61.3,29.79,NNW,342,0.0,0.0,84,0.00,,,0.00,Wunderground v.1.15,2013-09-23 06:57:00,
2013-09-23 02:02:00,66.3,61.0,29.80,NNW,336,0.0,0.0,83,0.00,,,0.00,Wunderground v.1.15,2013-09-23 07:02:00,
2013-09-23 02:07:00,66.3,61.0,29.80,NNE,21,0.0,0.0,83,0.00,,,0.00,Wunderground v.1.15,2013-09-23 07:07:00,
2013-09-23 02:17:00,66.1,61.1,29.80,North,10,0.0,0.0,84,0.00,,,0.00,Wunderground v.1.15,2013-09-23 07:17:00,
2013-09-23 02:22:00,66.0,61.0,29.80,North,360,0.0,0.0,84,0.00,,,0.00,Wunderground v.1.15,2013-09-23 07:22:00,
2013-09-23 02:27:00,65.9,60.9,29.80,North,355,0.0,0.0,84,0.00,,,0.00,Wunderground v.1.15,2013-09-23 07:27:00,
2013-09-23 02:32:00,65.8,60.8,29.80,North,355,0.0,0.0,84,0.00,,,0.00,Wunderground v.1.15,2013-09-23 07:32:00,
2013-09-23 02:37:00,65.7,60.7,29.80,North,355,0.0,0.0,84,0.00,,,0.00,Wunderground v.1.15,2013-09-23 07:37:00,
2013-09-23 02:42:00,65.6,60.6,29.80,North,355,0.0,0.0,84,0.00,,,0.00,Wunderground v.1.15,2013-09-23 07:42:00,
2013-09-23 02:47:00,65.5,60.5,29.80,North,355,0.0,0.0,84,0.00,,,0.00,Wunderground v.1.15,2013-09-23 07:47:00,
2013-09-23 02:52:00,65.4,61.1,29.80,North,355,0.0,0.0,86,0.00,,,0.00,Wunderground v.1.15,2013-09-23 07:52:00,
2013-09-23 02:57:00,65.3,61.0,29.80,North,355,0.0,0.0,86,0.00,,,0.00,Wunderground v.1.15,2013-09-23 07:57:00,
2013-09-23 03:02:00,65.1,60.8,29.80,North,355,0.0,0.0,86,0.00,,,0.00,Wunderground v.1.15,2013-09-23 08:02:00,
2013-09-23 03:17:00,64.5,60.9,29.80,North,355,0.0,0.0,88,0.00,,,0.00,Wunderground v.1.15,2013-09-23 08:17:00,
2013-09-23 03:22:00,64.5,60.9,29.80,North,355,0.0,0.0,88,0.00,,,0.00,Wunderground v.1.15,2013-09-23 08:22:00,
2013-09-23 03:27:00,64.4,60.8,29.80,North,355,0.0,0.0,88,0.00,,,0.00,Wunderground v.1.15,2013-09-23 08:27:00,
2013-09-23 03:32:00,64.4,60.8,29.80,North,355,0.0,0.0,88,0.00,,,0.00,Wunderground v.1.15,2013-09-23 08:32:00,
2013-09-23 03:37:00,64.2,60.2,29.80,North,355,0.0,0.0,87,0.00,,,0.00,Wunderground v.1.15,2013-09-23 08:37:00,
2013-09-23 03:42:00,64.1,60.5,29.80,North,355,0.0,0.0,88,0.00,,,0.00,Wunderground v.1.15,2013-09-23 08:42:00,
2013-09-23 03:52:00,64.1,60.5,29.81,North,355,0.0,0.0,88,0.00,,,0.00,Wunderground v.1.15,2013-09-23 08:52:00,
2013-09-23 03:57:00,64.2,60.6,29.80,North,355,0.0,0.0,88,0.00,,,0.00,Wunderground v.1.15,2013-09-23 08:57:00,
2013-09-23 04:02:00,64.3,61.0,29.80,North,355,0.0,0.0,89,0.00,,,0.00,Wunderground v.1.15,2013-09-23 09:02:00,
2013-09-23 04:07:00,64.3,61.0,29.80,North,355,0.0,0.0,89,0.00,,,0.00,Wunderground v.1.15,2013-09-23 09:07:00,
2013-09-23 04:12:00,64.2,60.6,29.80,North,355,0.0,0.0,88,0.00,,,0.00,Wunderground v.1.15,2013-09-23 09:12:00,
2013-09-23 04:17:00,64.2,60.6,29.80,North,355,0.0,0.0,88,0.00,,,0.00,Wunderground v.1.15,2013-09-23 09:17:00,
2013-09-23 04:22:00,64.2,60.2,29.80,North,355,0.0,2.0,87,0.00,,,0.00,Wunderground v.1.15,2013-09-23 09:22:00,
2013-09-23 04:27:00,64.4,60.4,29.80,North,360,0.0,2.0,87,0.00,,,0.00,Wunderground v.1.15,2013-09-23 09:27:00,
2013-09-23 04:32:00,64.6,60.6,29.80,NNW,345,0.0,0.0,87,0.00,,,0.00,Wunderground v.1.15,2013-09-23 09:32:00,
2013-09-23 04:37:00,64.8,60.2,29.80,North,351,0.0,3.0,85,0.00,,,0.00,Wunderground v.1.15,2013-09-23 09:37:00,
2013-09-23 04:42:00,65.1,60.1,29.80,NNE,13,1.0,2.0,84,0.00,,,0.00,Wunderground v.1.15,2013-09-23 09:42:00,
2013-09-23 04:52:00,65.5,60.2,29.80,NNW,343,1.0,1.0,83,0.00,,,0.00,Wunderground v.1.15,2013-09-23 09:52:00,
2013-09-23 04:57:00,65.6,60.3,29.80,NNW,347,1.0,1.0,83,0.00,,,0.00,Wunderground v.1.15,2013-09-23 09:57:00,
2013-09-23 05:02:00,65.8,60.5,29.80,North,355,0.0,1.0,83,0.00,,,0.00,Wunderground v.1.15,2013-09-23 10:02:00,
2013-09-23 05:07:00,65.9,60.2,29.80,North,355,0.0,1.0,82,0.00,,,0.00,Wunderground v.1.15,2013-09-23 10:07:00,
2013-09-23 05:12:00,66.0,60.3,29.80,NNW,348,1.0,4.0,82,0.00,,,0.00,Wunderground v.1.15,2013-09-23 10:12:00,
2013-09-23 05:17:00,66.1,60.1,29.80,North,355,1.0,4.0,81,0.00,,,0.00,Wunderground v.1.15,2013-09-23 10:17:00,
2013-09-23 05:23:00,66.3,60.3,29.80,NNW,340,1.0,1.0,81,0.00,,,0.00,Wunderground v.1.15,2013-09-23 10:23:00,
2013-09-23 05:33:00,66.3,60.3,29.80,NNW,342,0.0,0.0,81,0.00,,,0.00,Wunderground v.1.15,2013-09-23 10:33:00,
2013-09-23 05:38:00,66.3,60.3,29.81,NNW,345,0.0,0.0,81,0.00,,,0.00,Wunderground v.1.15,2013-09-23 10:38:00,
2013-09-23 05:43:00,66.1,60.1,29.81,North,360,1.0,1.0,81,0.00,,,0.00,Wunderground v.1.15,2013-09-23 10:43:00,
2013-09-23 05:48:00,66.0,60.0,29.80,North,349,0.0,1.0,81,0.00,,,0.00,Wunderground v.1.15,2013-09-23 10:48:00,
2013-09-23 05:57:00,65.8,60.2,29.81,NNW,345,1.0,2.0,82,0.00,,,0.00,Wunderground v.1.15,2013-09-23 10:57:00,
2013-09-23 06:02:00,65.8,60.5,29.81,NE,40,1.0,1.0,83,0.00,,,0.00,Wunderground v.1.15,2013-09-23 11:02:00,
2013-09-23 06:12:00,65.6,60.3,29.81,North,360,0.0,0.0,83,0.00,,,0.00,Wunderground v.1.15,2013-09-23 11:12:00,
2013-09-23 06:18:00,65.6,60.3,29.81,North,360,0.0,0.0,83,0.00,,,0.00,Wunderground v.1.15,2013-09-23 11:18:00,
2013-09-23 06:23:00,65.4,60.4,29.81,North,5,0.0,0.0,84,0.00,,,0.00,Wunderground v.1.15,2013-09-23 11:23:00,
2013-09-23 06:28:00,65.3,60.3,29.82,North,360,0.0,0.0,84,0.00,,,0.00,Wunderground v.1.15,2013-09-23 11:28:00,
2013-09-23 06:33:00,65.3,60.3,29.82,North,5,0.0,0.0,84,0.00,,,0.00,Wunderground v.1.15,2013-09-23 11:33:00,
2013-09-23 06:38:00,65.2,60.2,29.82,North,360,0.0,0.0,84,0.00,,,0.00,Wunderground v.1.15,2013-09-23 11:38:00,
2013-09-23 06:43:00,65.2,60.6,29.82,North,5,0.0,0.0,85,0.00,,,0.00,Wunderground v.1.15,2013-09-23 11:43:00,
2013-09-23 06:48:00,65.1,60.1,29.82,North,5,0.0,0.0,84,0.00,,,0.00,Wunderground v.1.15,2013-09-23 11:48:00,
2013-09-23 06:58:00,65.0,60.4,29.83,NNW,340,0.0,0.0,85,0.00,,,0.00,Wunderground v.1.15,2013-09-23 11:58:00,
2013-09-23 07:07:00,64.9,60.6,29.83,NNW,343,0.0,0.0,86,0.00,,,0.00,Wunderground v.1.15,2013-09-23 12:07:00,
2013-09-23 07:12:00,64.9,60.9,29.82,NNW,342,0.0,0.0,87,0.00,,,0.00,Wunderground v.1.15,2013-09-23 12:12:00,
2013-09-23 07:18:00,64.9,60.6,29.83,NNW,344,0.0,0.0,86,0.00,,,0.00,Wunderground v.1.15,2013-09-23 12:18:00,
2013-09-23 07:23:00,65.0,60.7,29.83,ENE,59,0.0,1.0,86,0.00,,,0.00,Wunderground v.1.15,2013-09-23 12:23:00,
2013-09-23 07:33:00,65.4,61.4,29.83,NE,49,0.0,0.0,87,0.00,,,0.00,Wunderground v.1.15,2013-09-23 12:33:00,
2013-09-23 07:38:00,65.9,61.6,29.83,NNE,18,0.0,0.0,86,0.00,,,0.00,Wunderground v.1.15,2013-09-23 12:38:00,
2013-09-23 07:43:00,66.3,61.7,29.83,NNW,346,0.0,0.0,85,0.00,,,0.00,Wunderground v.1.15,2013-09-23 12:43:00,
2013-09-23 07:48:00,66.7,62.4,29.83,NNW,348,0.0,1.0,86,0.00,,,0.00,Wunderground v.1.15,2013-09-23 12:48:00,
2013-09-23 07:53:00,66.9,62.2,29.83,North,355,0.0,0.0,85,0.00,,,0.00,Wunderground v.1.15,2013-09-23 12:53:00,
2013-09-23 08:02:00,67.7,63.4,29.83,NNW,338,0.0,0.0,86,0.00,,,0.00,Wunderground v.1.15,2013-09-23 13:02:00,
2013-09-23 08:08:00,68.2,63.9,29.83,NE,38,0.0,0.0,86,0.00,,,0.00,Wunderground v.1.15,2013-09-23 13:08:00,
2013-09-23 08:13:00,68.8,64.1,29.83,North,10,0.0,0.0,85,0.00,,,0.00,Wunderground v.1.15,2013-09-23 13:13:00,
2013-09-23 08:18:00,69.6,64.9,29.83,North,355,0.0,0.0,85,0.00,,,0.00,Wunderground v.1.15,2013-09-23 13:18:00,
2013-09-23 08:28:00,70.4,65.7,29.83,North,5,0.0,0.0,85,0.00,,,0.00,Wunderground v.1.15,2013-09-23 13:28:00,
2013-09-23 08:33:00,71.1,66.0,29.83,North,360,0.0,0.0,84,0.00,,,0.00,Wunderground v.1.15,2013-09-23 13:33:00,
2013-09-23 08:38:00,71.4,66.3,29.83,North,350,0.0,0.0,84,0.00,,,0.00,Wunderground v.1.15,2013-09-23 13:38:00,
2013-09-23 08:43:00,72.0,66.9,29.83,ENE,69,0.0,0.0,84,0.00,,,0.00,Wunderground v.1.15,2013-09-23 13:43:00,
2013-09-23 08:48:00,72.5,67.0,29.83,NNW,339,1.0,1.0,83,0.00,,,0.00,Wunderground v.1.15,2013-09-23 13:48:00,
2013-09-23 08:53:00,72.8,67.3,29.83,NE,55,1.0,1.0,83,0.00,,,0.00,Wunderground v.1.15,2013-09-23 13:53:00,
2013-09-23 08:58:00,73.7,68.2,29.83,NE,49,0.0,1.0,83,0.00,,,0.00,Wunderground v.1.15,2013-09-23 13:58:00,
2013-09-23 09:07:00,74.8,68.6,29.84,NNE,15,0.0,0.0,81,0.00,,,0.00,Wunderground v.1.15,2013-09-23 14:07:00,
2013-09-23 09:12:00,75.7,69.5,29.84,NE,34,0.0,0.0,81,0.00,,,0.00,Wunderground v.1.15,2013-09-23 14:12:00,
2013-09-23 09:17:00,76.5,69.5,29.84,NE,55,0.0,0.0,79,0.00,,,0.00,Wunderground v.1.15,2013-09-23 14:17:00,
2013-09-23 09:22:00,76.1,69.5,29.84,North,349,0.0,0.0,80,0.00,,,0.00,Wunderground v.1.15,2013-09-23 14:22:00,
2013-09-23 09:27:00,75.8,69.6,29.84,NNW,346,0.0,0.0,81,0.00,,,0.00,Wunderground v.1.15,2013-09-23 14:27:00,
2013-09-23 09:32:00,75.8,69.6,29.83,North,360,0.0,0.0,81,0.00,,,0.00,Wunderground v.1.15,2013-09-23 14:32:00,
2013-09-23 09:38:00,76.0,69.7,29.84,NE,42,0.0,0.0,81,0.00,,,0.00,Wunderground v.1.15,2013-09-23 14:38:00,
2013-09-23 09:48:00,76.9,70.3,29.84,NE,50,0.0,0.0,80,0.00,,,0.00,Wunderground v.1.15,2013-09-23 14:48:00,
2013-09-23 09:53:00,77.5,70.5,29.84,North,360,0.0,0.0,79,0.00,,,0.00,Wunderground v.1.15,2013-09-23 14:53:00,
2013-09-23 09:58:00,77.7,70.7,29.84,ENE,78,0.0,0.0,79,0.00,,,0.00,Wunderground v.1.15,2013-09-23 14:58:00,
2013-09-23 10:07:00,78.6,71.2,29.84,NNW,342,0.0,0.0,78,0.00,,,0.00,Wunderground v.1.15,2013-09-23 15:07:00,
2013-09-23 10:12:00,78.7,71.3,29.84,NNE,15,0.0,0.0,78,0.00,,,0.00,Wunderground v.1.15,2013-09-23 15:12:00,
2013-09-23 10:18:00,79.0,71.6,29.84,East,98,0.0,0.0,78,0.00,,,0.00,Wunderground v.1.15,2013-09-23 15:18:00,
2013-09-23 10:23:00,79.7,71.8,29.84,SSE,161,0.0,0.0,77,0.00,,,0.00,Wunderground v.1.15,2013-09-23 15:23:00,
2013-09-23 10:28:00,80.2,71.9,29.84,NE,46,0.0,0.0,76,0.00,,,0.00,Wunderground v.1.15,2013-09-23 15:28:00,
2013-09-23 10:33:00,80.5,72.2,29.84,NNE,24,0.0,0.0,76,0.00,,,0.00,Wunderground v.1.15,2013-09-23 15:33:00,
2013-09-23 10:42:00,81.2,72.5,29.84,North,350,0.0,0.0,75,0.00,,,0.00,Wunderground v.1.15,2013-09-23 15:42:00,
2013-09-23 10:47:00,81.8,73.5,29.84,SW,223,0.0,0.0,76,0.00,,,0.00,Wunderground v.1.15,2013-09-23 15:47:00,
2013-09-23 10:52:00,82.2,73.9,29.84,WSW,251,0.0,0.0,76,0.00,,,0.00,Wunderground v.1.15,2013-09-23 15:52:00,
2013-09-23 10:57:00,82.5,73.0,29.84,ENE,66,0.0,0.0,73,0.00,,,0.00,Wunderground v.1.15,2013-09-23 15:57:00,
2013-09-23 11:02:00,82.6,73.5,29.84,ESE,111,0.0,0.0,74,0.00,,,0.00,Wunderground v.1.15,2013-09-23 16:02:00,
2013-09-23 11:12:00,83.5,74.7,29.84,South,186,0.0,0.0,75,0.00,,,0.00,Wunderground v.1.15,2013-09-23 16:12:00,
2013-09-23 11:17:00,83.6,74.4,29.84,South,190,0.0,0.0,74,0.00,,,0.00,Wunderground v.1.15,2013-09-23 16:17:00,
2013-09-23 11:22:00,83.7,74.5,29.84,SE,145,0.0,0.0,74,0.00,,,0.00,Wunderground v.1.15,2013-09-23 16:22:00,
2013-09-23 11:27:00,83.8,74.2,29.84,South,176,0.0,0.0,73,0.00,,,0.00,Wunderground v.1.15,2013-09-23 16:27:00,
2013-09-23 11:32:00,84.2,74.2,29.84,NE,55,0.0,0.0,72,0.00,,,0.00,Wunderground v.1.15,2013-09-23 16:32:00,
2013-09-23 11:37:00,84.9,74.9,29.84,NNE,17,0.0,0.0,72,0.00,,,0.00,Wunderground v.1.15,2013-09-23 16:37:00,
2013-09-23 11:47:00,85.0,75.4,29.83,South,182,0.0,0.0,73,0.00,,,0.00,Wunderground v.1.15,2013-09-23 16:47:00,
2013-09-23 11:52:00,84.8,74.8,29.83,South,172,0.0,0.0,72,0.00,,,0.00,Wunderground v.1.15,2013-09-23 16:52:00,
2013-09-23 11:57:00,84.7,74.3,29.83,ENE,64,0.0,0.0,71,0.00,,,0.00,Wunderground v.1.15,2013-09-23 16:57:00,
2013-09-23 12:02:00,85.3,75.2,29.83,SE,132,0.0,0.0,72,0.00,,,0.00,Wunderground v.1.15,2013-09-23 17:02:00,
2013-09-23 12:07:00,86.1,76.0,29.83,SE,127,0.0,0.0,72,0.00,,,0.00,Wunderground v.1.15,2013-09-23 17:07:00,
2013-09-23 12:12:00,86.5,76.0,29.83,ESE,112,0.0,0.0,71,0.00,,,0.00,Wunderground v.1.15,2013-09-23 17:12:00,
2013-09-23 12:18:00,86.6,75.2,29.83,ENE,71,0.0,0.0,69,0.00,,,0.00,Wunderground v.1.15,2013-09-23 17:18:00,
2013-09-23 12:23:00,86.4,75.0,29.83,ENE,57,0.0,0.0,69,0.00,,,0.00,Wunderground v.1.15,2013-09-23 17:23:00,
2013-09-23 12:28:00,85.9,75.4,29.83,ESE,109,0.0,0.0,71,0.00,,,0.00,Wunderground v.1.15,2013-09-23 17:28:00,
2013-09-23 12:33:00,86.4,75.9,29.83,South,184,0.0,0.0,71,0.00,,,0.00,Wunderground v.1.15,2013-09-23 17:33:00,
2013-09-23 12:38:00,86.4,75.5,29.82,East,84,0.0,0.0,70,0.00,,,0.00,Wunderground v.1.15,2013-09-23 17:38:00,
2013-09-23 12:47:00,87.2,76.2,29.82,SSE,153,0.0,0.0,70,0.00,,,0.00,Wunderground v.1.15,2013-09-23 17:47:00,
2013-09-23 12:52:00,86.5,75.5,29.82,SSE,153,0.0,0.0,70,0.00,,,0.00,Wunderground v.1.15,2013-09-23 17:52:00,
2013-09-23 12:57:00,86.1,76.4,29.82,SSE,158,0.0,0.0,73,0.00,,,0.00,Wunderground v.1.15,2013-09-23 17:57:00,
2013-09-23 13:02:00,86.1,75.6,29.82,NW,309,0.0,0.0,71,0.00,,,0.00,Wunderground v.1.15,2013-09-23 18:02:00,
2013-09-23 13:08:00,87.2,76.6,29.81,SE,142,0.0,0.0,71,0.00,,,0.00,Wunderground v.1.15,2013-09-23 18:08:00,
2013-09-23 13:13:00,86.8,76.7,29.81,SW,217,0.0,0.0,72,0.00,,,0.00,Wunderground v.1.15,2013-09-23 18:13:00,
2013-09-23 13:23:00,87.7,75.8,29.81,East,94,0.0,0.0,68,0.00,,,0.00,Wunderground v.1.15,2013-09-23 18:23:00,
2013-09-23 13:28:00,87.6,76.6,29.81,East,84,0.0,0.0,70,0.00,,,0.00,Wunderground v.1.15,2013-09-23 18:28:00,
2013-09-23 13:33:00,87.0,76.9,29.81,East,84,0.0,0.0,72,0.00,,,0.00,Wunderground v.1.15,2013-09-23 18:33:00,
2013-09-23 13:38:00,86.1,76.4,29.81,East,88,0.0,0.0,73,0.00,,,0.00,Wunderground v.1.15,2013-09-23 18:38:00,
2013-09-23 13:43:00,85.3,76.5,29.80,SSE,153,0.0,0.0,75,0.00,,,0.00,Wunderground v.1.15,2013-09-23 18:43:00,
2013-09-23 13:53:00,84.4,75.6,29.80,SSW,212,0.0,0.0,75,0.00,,,0.00,Wunderground v.1.15,2013-09-23 18:53:00,
2013-09-23 13:58:00,84.3,76.3,29.80,SSW,202,0.0,0.0,77,0.00,,,0.00,Wunderground v.1.15,2013-09-23 18:58:00,
2013-09-23 14:08:00,84.8,76.0,29.80,SSE,165,0.0,0.0,75,0.00,,,0.00,Wunderground v.1.15,2013-09-23 19:08:00,
2013-09-23 14:13:00,85.1,76.7,29.80,SSE,165,0.0,0.0,76,0.00,,,0.00,Wunderground v.1.15,2013-09-23 19:13:00,
2013-09-23 14:18:00,85.2,76.4,29.80,West,267,0.0,0.0,75,0.00,,,0.00,Wunderground v.1.15,2013-09-23 19:18:00,
2013-09-23 14:28:00,86.5,76.4,29.79,South,182,0.0,0.0,72,0.00,,,0.00,Wunderground v.1.15,2013-09-23 19:28:00,
2013-09-23 14:33:00,87.6,76.2,29.79,East,93,0.0,0.0,69,0.00,,,0.00,Wunderground v.1.15,2013-09-23 19:33:00,
2013-09-23 14:38:00,87.8,75.0,29.79,South,190,0.0,0.0,66,0.00,,,0.00,Wunderground v.1.15,2013-09-23 19:38:00,
2013-09-23 14:43:00,87.6,75.7,29.79,South,190,0.0,0.0,68,0.00,,,0.00,Wunderground v.1.15,2013-09-23 19:43:00,
2013-09-23 14:48:00,87.1,76.1,29.79,SSW,195,0.0,0.0,70,0.00,,,0.00,Wunderground v.1.15,2013-09-23 19:48:00,
2013-09-23 14:57:00,86.6,76.1,29.79,SE,142,0.0,0.0,71,0.00,,,0.00,Wunderground v.1.15,2013-09-23 19:57:00,
2013-09-23 15:08:00,87.8,75.9,29.79,South,188,0.0,0.0,68,0.00,,,0.00,Wunderground v.1.15,2013-09-23 20:08:00,
2013-09-23 15:12:00,87.6,75.7,29.79,SSW,205,0.0,0.0,68,0.00,,,0.00,Wunderground v.1.15,2013-09-23 20:12:00,
2013-09-23 15:17:00,87.1,76.5,29.79,SSW,207,0.0,0.0,71,0.00,,,0.00,Wunderground v.1.15,2013-09-23 20:17:00,
2013-09-23 15:22:00,86.6,76.1,29.79,South,173,0.0,0.0,71,0.00,,,0.00,Wunderground v.1.15,2013-09-23 20:22:00,
2013-09-23 15:32:00,85.7,75.6,29.79,SSW,198,0.0,0.0,72,0.00,,,0.00,Wunderground v.1.15,2013-09-23 20:32:00,
2013-09-23 15:37:00,85.7,76.5,29.79,SSW,198,0.0,0.0,74,0.00,,,0.00,Wunderground v.1.15,2013-09-23 20:37:00,
2013-09-23 15:42:00,86.0,75.9,29.79,East,83,0.0,0.0,72,0.00,,,0.00,Wunderground v.1.15,2013-09-23 20:42:00,
2013-09-23 15:47:00,86.6,76.5,29.79,SE,128,0.0,0.0,72,0.00,,,0.00,Wunderground v.1.15,2013-09-23 20:47:00,
2013-09-23 15:52:00,86.7,76.2,29.78,South,185,0.0,0.0,71,0.00,,,0.00,Wunderground v.1.15,2013-09-23 20:52:00,
2013-09-23 16:02:00,87.2,77.5,29.78,NE,44,0.0,0.0,73,0.00,,,0.00,Wunderground v.1.15,2013-09-23 21:02:00,
2013-09-23 16:07:00,87.4,76.8,29.78,SSE,165,0.0,0.0,71,0.00,,,0.00,Wunderground v.1.15,2013-09-23 21:07:00,
2013-09-23 16:12:00,87.5,76.5,29.79,SW,215,0.0,0.0,70,0.00,,,0.00,Wunderground v.1.15,2013-09-23 21:12:00,
2013-09-23 16:17:00,87.3,77.2,29.78,SW,215,0.0,0.0,72,0.00,,,0.00,Wunderground v.1.15,2013-09-23 21:17:00,
2013-09-23 16:22:00,87.0,76.9,29.79,South,178,0.0,0.0,72,0.00,,,0.00,Wunderground v.1.15,2013-09-23 21:22:00,
2013-09-23 16:27:00,86.8,76.7,29.78,SSW,202,0.0,0.0,72,0.00,,,0.00,Wunderground v.1.15,2013-09-23 21:27:00,
2013-09-23 16:38:00,86.4,76.3,29.79,SSE,161,0.0,0.0,72,0.00,,,0.00,Wunderground v.1.15,2013-09-23 21:38:00,
2013-09-23 16:43:00,86.2,75.7,29.79,South,188,0.0,0.0,71,0.00,,,0.00,Wunderground v.1.15,2013-09-23 21:43:00,
2013-09-23 16:53:00,85.8,76.1,29.79,South,190,0.0,0.0,73,0.00,,,0.00,Wunderground v.1.15,2013-09-23 21:53:00,
2013-09-23 16:58:00,85.3,76.1,29.79,South,190,0.0,0.0,74,0.00,,,0.00,Wunderground v.1.15,2013-09-23 21:58:00,
2013-09-23 17:07:00,84.4,76.8,29.79,South,191,0.0,0.0,78,0.00,,,0.00,Wunderground v.1.15,2013-09-23 22:07:00,
2013-09-23 17:13:00,84.3,76.3,29.79,SSW,201,0.0,0.0,77,0.00,,,0.00,Wunderground v.1.15,2013-09-23 22:13:00,
2013-09-23 17:18:00,84.2,76.2,29.79,SSW,201,0.0,0.0,77,0.00,,,0.00,Wunderground v.1.15,2013-09-23 22:18:00,
2013-09-23 17:28:00,83.9,76.7,29.79,SSE,156,0.0,0.0,79,0.00,,,0.00,Wunderground v.1.15,2013-09-23 22:28:00,
2013-09-23 17:38:00,83.8,76.6,29.79,South,187,0.0,0.0,79,0.00,,,0.00,Wunderground v.1.15,2013-09-23 22:38:00,
2013-09-23 17:43:00,83.7,76.5,29.79,SSW,202,0.0,0.0,79,0.00,,,0.00,Wunderground v.1.15,2013-09-23 22:43:00,
2013-09-23 17:48:00,83.5,76.7,29.79,South,181,0.0,0.0,80,0.00,,,0.00,Wunderground v.1.15,2013-09-23 22:48:00,
2013-09-23 17:52:00,83.4,77.0,29.80,SSE,165,0.0,0.0,81,0.00,,,0.00,Wunderground v.1.15,2013-09-23 22:52:00,
2013-09-23 17:57:00,83.2,76.4,29.80,East,98,0.0,0.0,80,0.00,,,0.00,Wunderground v.1.15,2013-09-23 22:57:00,
2013-09-23 18:02:00,83.2,76.8,29.80,SSW,208,0.0,0.0,81,0.00,,,0.00,Wunderground v.1.15,2013-09-23 23:02:00,
2013-09-23 18:08:00,82.9,76.8,29.80,SSW,199,0.0,0.0,82,0.00,,,0.00,Wunderground v.1.15,2013-09-23 23:08:00,
2013-09-23 18:13:00,82.7,77.0,29.80,SSE,153,0.0,0.0,83,0.00,,,0.00,Wunderground v.1.15,2013-09-23 23:13:00,
2013-09-23 18:18:00,82.4,76.7,29.81,SE,136,0.0,0.0,83,0.00,,,0.00,Wunderground v.1.15,2013-09-23 23:18:00,
2013-09-23 18:23:00,82.1,76.4,29.80,SSW,202,0.0,0.0,83,0.00,,,0.00,Wunderground v.1.15,2013-09-23 23:23:00,
2013-09-23 18:27:00,81.8,76.5,29.80,South,176,0.0,0.0,84,0.00,,,0.00,Wunderground v.1.15,2013-09-23 23:27:00,
2013-09-23 18:32:00,81.5,76.6,29.80,ENE,73,0.0,0.0,85,0.00,,,0.00,Wunderground v.1.15,2013-09-23 23:32:00,
2013-09-23 18:42:00,81.2,76.3,29.80,ESE,103,0.0,0.0,85,0.00,,,0.00,Wunderground v.1.15,2013-09-23 23:42:00,
2013-09-23 18:52:00,80.9,76.3,29.81,East,83,0.0,0.0,86,0.00,,,0.00,Wunderground v.1.15,2013-09-23 23:52:00,
2013-09-23 18:57:00,80.7,76.1,29.81,East,82,0.0,0.0,86,0.00,,,0.00,Wunderground v.1.15,2013-09-23 23:57:00,
2013-09-23 19:02:00,80.6,76.4,29.81,East,82,0.0,0.0,87,0.00,,,0.00,Wunderground v.1.15,2013-09-24 00:02:00,
2013-09-23 19:07:00,80.4,76.2,29.81,East,82,0.0,0.0,87,0.00,,,0.00,Wunderground v.1.15,2013-09-24 00:07:00,
2013-09-23 19:13:00,80.2,76.3,29.81,East,82,0.0,0.0,88,0.00,,,0.00,Wunderground v.1.15,2013-09-24 00:13:00,
2013-09-23 19:18:00,80.0,76.1,29.81,East,82,0.0,0.0,88,0.00,,,0.00,Wunderground v.1.15,2013-09-24 00:18:00,
2013-09-23 19:23:00,79.8,76.3,29.81,East,82,0.0,0.0,89,0.00,,,0.00,Wunderground v.1.15,2013-09-24 00:23:00,
2013-09-23 19:33:00,79.6,76.1,29.81,East,82,0.0,0.0,89,0.00,,,0.00,Wunderground v.1.15,2013-09-24 00:33:00,
2013-09-23 19:38:00,79.4,76.2,29.81,East,82,0.0,0.0,90,0.00,,,0.00,Wunderground v.1.15,2013-09-24 00:38:00,
2013-09-23 19:48:00,78.9,76.0,29.82,East,82,0.0,0.0,91,0.00,,,0.00,Wunderground v.1.15,2013-09-24 00:48:00,
2013-09-23 19:53:00,78.4,75.9,29.82,East,82,0.0,0.0,92,0.00,,,0.00,Wunderground v.1.15,2013-09-24 00:53:00,
2013-09-23 19:57:00,78.2,75.7,29.82,East,82,0.0,0.0,92,0.00,,,0.00,Wunderground v.1.15,2013-09-24 00:57:00,
2013-09-23 20:02:00,78.0,75.5,29.82,East,82,0.0,0.0,92,0.00,,,0.00,Wunderground v.1.15,2013-09-24 01:02:00,
2013-09-23 20:08:00,77.9,75.7,29.83,East,82,0.0,0.0,93,0.00,,,0.00,Wunderground v.1.15,2013-09-24 01:08:00,
2013-09-23 20:13:00,77.7,75.5,29.83,East,82,0.0,0.0,93,0.00,,,0.00,Wunderground v.1.15,2013-09-24 01:13:00,
2013-09-23 20:18:00,77.7,75.5,29.83,East,82,0.0,0.0,93,0.00,,,0.00,Wunderground v.1.15,2013-09-24 01:18:00,
2013-09-23 20:23:00,77.5,75.3,29.83,East,82,0.0,0.0,93,0.00,,,0.00,Wunderground v.1.15,2013-09-24 01:23:00,
2013-09-23 20:28:00,77.4,75.5,29.83,East,82,0.0,0.0,94,0.00,,,0.00,Wunderground v.1.15,2013-09-24 01:28:00,
2013-09-23 20:33:00,77.2,75.3,29.83,East,82,0.0,0.0,94,0.00,,,0.00,Wunderground v.1.15,2013-09-24 01:33:00,
2013-09-23 20:38:00,77.1,75.2,29.83,East,82,0.0,0.0,94,0.00,,,0.00,Wunderground v.1.15,2013-09-24 01:38:00,
2013-09-23 20:48:00,76.8,74.9,29.84,East,82,0.0,0.0,94,0.00,,,0.00,Wunderground v.1.15,2013-09-24 01:48:00,
2013-09-23 20:53:00,76.7,74.8,29.84,East,82,0.0,0.0,94,0.00,,,0.00,Wunderground v.1.15,2013-09-24 01:53:00,
2013-09-23 20:58:00,76.6,74.7,29.84,NE,40,0.0,0.0,94,0.00,,,0.00,Wunderground v.1.15,2013-09-24 01:58:00,
2013-09-23 21:03:00,76.5,75.0,29.84,NE,40,0.0,0.0,95,0.00,,,0.00,Wunderground v.1.15,2013-09-24 02:03:00,
2013-09-23 21:12:00,76.3,74.4,29.84,NE,40,0.0,0.0,94,0.00,,,0.00,Wunderground v.1.15,2013-09-24 02:12:00,
2013-09-23 21:18:00,76.2,74.7,29.84,NE,40,0.0,0.0,95,0.00,,,0.00,Wunderground v.1.15,2013-09-24 02:18:00,
2013-09-23 21:23:00,76.1,74.6,29.84,NE,40,0.0,0.0,95,0.00,,,0.00,Wunderground v.1.15,2013-09-24 02:23:00,
2013-09-23 21:28:00,76.0,74.5,29.85,NE,40,0.0,0.0,95,0.00,,,0.00,Wunderground v.1.15,2013-09-24 02:28:00,
2013-09-23 21:33:00,75.9,74.4,29.85,NE,40,0.0,0.0,95,0.00,,,0.00,Wunderground v.1.15,2013-09-24 02:33:00,
2013-09-23 21:38:00,75.8,74.3,29.85,NE,40,0.0,0.0,95,0.00,,,0.00,Wunderground v.1.15,2013-09-24 02:38:00,
2013-09-23 21:43:00,75.7,74.2,29.85,NE,40,0.0,0.0,95,0.00,,,0.00,Wunderground v.1.15,2013-09-24 02:43:00,
2013-09-23 21:53:00,75.6,74.1,29.85,NE,40,0.0,0.0,95,0.00,,,0.00,Wunderground v.1.15,2013-09-24 02:53:00,
2013-09-23 21:58:00,75.5,74.0,29.85,NE,42,0.0,0.0,95,0.00,,,0.00,Wunderground v.1.15,2013-09-24 02:58:00,
2013-09-23 22:03:00,75.5,74.0,29.85,NE,42,0.0,0.0,95,0.00,,,0.00,Wunderground v.1.15,2013-09-24 03:03:00,
2013-09-23 22:13:00,75.3,73.8,29.85,NE,42,0.0,0.0,95,0.00,,,0.00,Wunderground v.1.15,2013-09-24 03:13:00,
2013-09-23 22:18:00,75.3,74.1,29.85,NE,42,0.0,0.0,96,0.00,,,0.00,Wunderground v.1.15,2013-09-24 03:18:00,
2013-09-23 22:28:00,75.3,74.1,29.85,NE,42,0.0,0.0,96,0.00,,,0.00,Wunderground v.1.15,2013-09-24 03:28:00,
2013-09-23 22:33:00,75.3,74.1,29.85,NE,42,0.0,0.0,96,0.00,,,0.00,Wunderground v.1.15,2013-09-24 03:33:00,
2013-09-23 22:37:00,75.3,74.1,29.85,NE,42,0.0,0.0,96,0.00,,,0.00,Wunderground v.1.15,2013-09-24 03:37:00,
2013-09-23 22:42:00,75.3,74.1,29.85,ENE,68,0.0,0.0,96,0.00,,,0.00,Wunderground v.1.15,2013-09-24 03:42:00,
2013-09-23 22:47:00,75.4,74.2,29.85,NE,55,0.0,0.0,96,0.00,,,0.00,Wunderground v.1.15,2013-09-24 03:47:00,
2013-09-23 22:57:00,75.3,74.1,29.84,NE,55,0.0,0.0,96,0.00,,,0.00,Wunderground v.1.15,2013-09-24 03:57:00,
2013-09-23 23:02:00,75.3,74.1,29.85,NE,55,0.0,0.0,96,0.00,,,0.00,Wunderground v.1.15,2013-09-24 04:02:00,
2013-09-23 23:07:00,75.3,74.1,29.85,NE,50,0.0,0.0,96,0.00,,,0.00,Wunderground v.1.15,2013-09-24 04:07:00,
2013-09-23 23:12:00,75.2,74.0,29.85,East,91,0.0,0.0,96,0.00,,,0.00,Wunderground v.1.15,2013-09-24 04:12:00,
2013-09-23 23:17:00,75.2,74.0,29.85,NE,42,0.0,0.0,96,0.00,,,0.00,Wunderground v.1.15,2013-09-24 04:17:00,
2013-09-23 23:22:00,75.1,73.9,29.85,NE,43,0.0,0.0,96,0.00,,,0.00,Wunderground v.1.15,2013-09-24 04:22:00,
2013-09-23 23:32:00,75.0,73.8,29.85,NE,48,0.0,0.0,96,0.00,,,0.00,Wunderground v.1.15,2013-09-24 04:32:00,
2013-09-23 23:37:00,74.9,73.7,29.85,NE,48,0.0,0.0,96,0.00,,,0.00,Wunderground v.1.15,2013-09-24 04:37:00,
2013-09-23 23:42:00,74.8,73.6,29.85,NE,48,0.0,0.0,96,0.00,,,0.00,Wunderground v.1.15,2013-09-24 04:42:00,
2013-09-23 23:47:00,74.8,73.6,29.85,NE,48,0.0,0.0,96,0.00,,,0.00,Wunderground v.1.15,2013-09-24 04:47:00,
2013-09-23 23:52:00,74.7,73.5,29.85,NE,48,0.0,0.0,96,0.00,,,0.00,Wunderground v.1.15,2013-09-24 04:52:00,
2013-09-23 23:58:00,74.7,73.5,29.84,NE,48,0.0,0.0,96,0.00,,,0.00,Wunderground v.1.15,2013-09-24 04:58:00,